Weather History for Havre, MT

Change the Weather History Date:

Wednesday, April 3, 2013

  Actual Average Record
Temperature  
Mean Temperature 48 °F 40 °F  
Max Temperature 55 °F 53 °F 77 °F (1992)
Min Temperature 40 °F 28 °F -7 °F (1936)
Degree Days  
Heating Degree Days 17 25  
Month to date heating degree days 61 75  
Since 1 July heating degree days 6924 7193  
Cooling Degree Days 0 0  
Month to date cooling degree days 0 0  
Year to date cooling degree days 0 0  
Moisture  
Dew Point 27 °F    
Average Humidity 46    
Maximum Humidity 62    
Minimum Humidity 29    
Precipitation  
Precipitation T in 0.03 in 1.09 in (1955)
Month to date precipitation T 0.07  
Year to date precipitation 1.92 1.22  
Snow  
Snow 0.00 in 0.10 in 15.00 in (1955)
Month to date snowfall 0.0 0.5  
Since 1 July snowfall 47.0 34.7  
Snow Depth 0.00 in    
Sea Level Pressure  
Sea Level Pressure 30.06 in    
Wind  
Wind Speed 12 mph (NNE)    
Max Wind Speed 25 mph    
Max Gust Speed 31 mph    
Visibility 10 miles    
Events      
T = Trace of Precipitation, MM = Missing Value Source: NWS Daily Summary

Daily Weather History Graph

Daily Weather History Graph

Search for Another Location

Airport:

Trip Planner

Search our weather history database for the weather conditions in past years. The results will help you decide how hot, cold, wet, or windy it might be!

Date:

Astronomy

Apr. 03, 2013 Rise Set
Actual Time 6:52 AM MDT 7:53 PM MDT
Civil Twilight 6:20 AM MDT 8:25 PM MDT
Nautical Twilight 5:41 AM MDT 9:03 PM MDT
Astronomical Twilight 5:01 AM MDT 9:44 PM MDT
Moon 3:06 AM MDT (4/3) 12:39 PM MDT (4/3)
Length of Visible Light 14h 04m
Length of Day
13h 01m
Last Quarter, 44% of the Moon is Illuminated
Apr 3
Last Quarter
Apr 10
New
Apr 18
First Quarter
Apr 25
Full
May 2
Last Quarter

Hourly Weather History & Observations

Time (MDT) Temp. Windchill Dew Point Humidity Pressure Visibility Wind Dir Wind Speed Gust Speed Precip Events Conditions
12:53 AM 55.0 °F - 33.1 °F 43% 29.82 in 10.0 mi West 24.2 mph - N/A   Clear
1:53 AM 55.0 °F - 32.0 °F 42% 29.83 in 10.0 mi West 21.9 mph - N/A   Clear
2:53 AM 51.1 °F - 32.0 °F 48% 29.83 in 10.0 mi WSW 13.8 mph - N/A   Clear
3:53 AM 46.9 °F - 32.0 °F 56% 29.85 in 10.0 mi SW 13.8 mph - N/A   Clear
4:53 AM 46.0 °F 39.9 °F 32.0 °F 58% 29.86 in 10.0 mi WSW 13.8 mph - N/A   Clear
5:53 AM 45.0 °F 38.9 °F 32.0 °F 60% 29.90 in 10.0 mi SW 12.7 mph - N/A   Clear
6:53 AM 45.0 °F 39.3 °F 32.0 °F 60% 29.96 in 10.0 mi SW 11.5 mph - N/A   Overcast
7:53 AM 44.1 °F 39.0 °F 30.9 °F 60% 30.01 in 10.0 mi WNW 9.2 mph - N/A   Overcast
8:53 AM 43.0 °F - 30.9 °F 62% 30.06 in 10.0 mi North - - N/A   Overcast
9:53 AM 45.0 °F 38.9 °F 30.9 °F 58% 30.12 in 10.0 mi NNE 12.7 mph - N/A   Overcast
10:53 AM 46.0 °F 40.6 °F 30.9 °F 56% 30.15 in 10.0 mi NNE 11.5 mph - N/A   Mostly Cloudy
11:53 AM 48.9 °F - 28.0 °F 44% 30.16 in 10.0 mi NE 10.4 mph 19.6 mph N/A   Mostly Cloudy
12:53 PM 48.9 °F - 26.1 °F 41% 30.14 in 10.0 mi NNE 11.5 mph 19.6 mph N/A   Mostly Cloudy
1:53 PM 51.1 °F - 24.1 °F 35% 30.15 in 10.0 mi NNE 13.8 mph 18.4 mph N/A   Partly Cloudy
2:53 PM 48.9 °F - 23.0 °F 36% 30.17 in 10.0 mi NE 6.9 mph - N/A   Overcast
3:53 PM 51.1 °F - 21.9 °F 32% 30.17 in 10.0 mi NNE 10.4 mph 17.3 mph N/A   Mostly Cloudy
4:53 PM 50.0 °F - 19.9 °F 31% 30.16 in 10.0 mi ENE 8.1 mph - N/A   Mostly Cloudy
5:53 PM 50.0 °F - 21.0 °F 32% 30.14 in 10.0 mi NE 10.4 mph - N/A   Mostly Cloudy
6:53 PM 46.9 °F - 19.9 °F 34% 30.15 in 10.0 mi NE 9.2 mph - N/A   Mostly Cloudy
7:53 PM 46.0 °F 41.0 °F 19.9 °F 35% 30.15 in 10.0 mi ENE 10.4 mph - N/A   Overcast
8:53 PM 43.0 °F 36.8 °F 19.0 °F 38% 30.14 in 10.0 mi ENE 11.5 mph - 0.00 in   Overcast
9:53 PM 43.0 °F 36.4 °F 19.0 °F 38% 30.15 in 10.0 mi ENE 12.7 mph - N/A   Mostly Cloudy
10:53 PM 41.0 °F 34.3 °F 23.0 °F 49% 30.17 in 10.0 mi East 11.5 mph - N/A   Overcast
11:53 PM 41.0 °F 32.5 °F 24.1 °F 51% 30.17 in 10.0 mi East 17.3 mph - N/A   Overcast